www.pogodaiklimat.ru
ПОГОДА в Дойлестауне
Время
и дата
03:54 25.02
04:54 25.02
05:54 25.02
06:54 25.02
07:54 25.02
08:54 25.02
09:54 25.02
10:54 25.02
11:54 25.02
12:54 25.02
13:54 25.02
14:54 25.02
15:54 25.02
16:54 25.02
17:54 25.02
18:54 25.02
19:54 25.02
20:54 25.02
21:54 25.02
22:54 25.02
23:54 25.02
00:54 26.02
01:54 26.02
02:54 26.02
03:54 26.02
04:54 26.02
05:54 26.02
06:54 26.02
07:54 26.02
08:54 26.02
09:54 26.02
10:54 26.02
11:54 26.02
12:54 26.02
13:54 26.02
14:54 26.02
15:54 26.02
16:54 26.02
17:54 26.02
18:54 26.02
19:54 26.02
20:54 26.02
21:54 26.02
22:54 26.02
23:54 26.02
00:54 27.02
01:54 27.02
02:54 27.02
Ветер
(напр.,м/с)
Видим. Явления Облачность Т
(С)
Тd
(С)
f
(%)
Тe
(С)
Тes
(С)
Комфортность P
(гПа)
Po
(гПа)
Тmin
(С)
Tmax
(С)
R
(мм)
R24
(мм)
S
(см)
штиль 0 16 км ясно -5.6 -13.3 55 -6 -6 1019.6 1004.4
С 2 16 км ясно -6.1 -12.8 59 -10 -10 1020.4 1005.1
штиль 0 16 км ясно -7.2 -12.2 67 -8 -8 1021.0 1005.4
штиль 0 16 км ясно -7.8 -11.7 74 -8 -8 1021.4 1006.1 -7.8 -4.4 0.3
С 2 16 км ясно -5.6 -12.2 60 -10 -9 1022.4 1006.8
З 2 16 км ясно -3.3 -12.2 50 -7 -5 1022.9 1007.4
штиль 0 16 км ясно -2.2 -11.7 48 -3 +3 1022.8 1007.4
СЗ 2 16 км ясно 0.0 -11.1 43 -3 +4 1022.3 1006.8
штиль 0 16 км ясно +0.6 -11.7 39 0 +12 1021.5 1006.1
ЮЗ 3 16 км ясно +3.3 -11.1 34 0 +8 1020.9 1005.4 -7.8 +3.3
З 3 16 км ясно +3.9 -10.6 34 +1 +8 1019.9 1004.8
Ю 3 16 км ясно +5.0 -10.6 31 +3 +8 1019.3 1004.1
нст 3 16 км ясно +5.6 -10.6 30 +3 +7 1019.3 1004.1
нст 2 16 км ясно +5.0 -10.6 31 +3 +5 1018.6 1003.4
Ю 2 16 км ясно +3.9 -10.0 35 +2 +2 1018.7 1003.4
Ю 2 16 км ясно +2.8 -9.4 40 +1 +1 1019.1 1003.8 +2.2 +5.6
нст 3 16 км ясно +1.7 -8.9 45 -2 -2 1019.1 1003.8
Ю 2 16 км ясно +0.6 -8.3 51 -2 -2 1019.5 1004.1
нст 2 16 км ясно +0.6 -7.8 53 -2 -2 1019.5 1004.4
Ю 2 16 км ясно 0.0 -6.7 61 -3 -3 1018.8 1003.4
ЮЗ 2 16 км ясно +0.6 -5.6 63 -2 -2 1018.5 1003.4
Ю 2 16 км ясно 0.0 -5.6 66 -3 -3 1018.2 1003.1 +2.8
Ю 2 16 км ясно 0.0 -5.6 66 -3 -3 1018.4 1003.1
Ю 2 16 км 2/0 3300 m
[Ac]
+0.6 -5.0 66 -3 -3 1017.8 1002.8
Ю 2 16 км 5/0 3300 m
[Ac]
0.0 -4.4 72 -3 -3 1017.6 1002.4
штиль 0 16 км ясно 0.0 -3.9 75 -1 -1 1017.4 1002.1
штиль 0 16 км ясно -1.1 -3.9 81 -2 -2 1017.2 1002.1
штиль 0 16 км ясно -2.2 -3.9 88 -3 -3 1017.8 1002.8 -2.2 +0.6
штиль 0 16 км ясно +0.6 -2.2 81 0 0 1017.9 1002.8
ЮЗ 3 16 км 2/0 3600 m
[Ac]
+3.3 -0.6 76 0 +1 1017.8 1002.8
ЮЗ 2 16 км 8/0 2700 m
[Ac]
+5.0 0.0 70 +3 +4 1017.9 1002.8
нст 2 16 км 10/5 1260 m
[Ac]
+6.7 0.0 62 +5 +6 1017.6 1002.8
штиль 0 16 км 2/2 1950 м +8.3 0.0 56 +8 +17 1017.2 1002.1
нст 3 16 км ясно +10.6 -0.6 46 +9 +17 1016.8 1001.8 -2.2 +10.6
нст 3 16 км ясно +11.7 0.0 44 +10 +18 1016.2 1001.4
штиль 0 16 км ясно +13.3 -0.6 38 +13 +22 1015.6 1000.8
ЮЗ 2 16 км ясно +13.3 0.0 40 +13 +17 1015.7 1000.8
штиль 0 16 км ясно +12.8 -0.6 40 +13 +15 1015.5 1000.8
штиль 0 16 км ясно +11.1 +0.6 48 +11 +11 1015.9 1001.1
штиль 0 16 км ясно +8.9 +1.1 58 +9 +9 1016.5 1001.4 +8.3 +13.9
Ю 2 16 км ясно +7.8 +0.6 60 +6 +6 1016.6 1001.4
штиль 0 16 км ясно +6.1 +0.6 68 +5 +5 1017.2 1002.1
штиль 0 16 км ясно +6.1 +0.6 68 +5 +5 1017.5 1002.8
штиль 0 16 км ясно +4.4 +0.6 76 +4 +4 1017.4 1002.4
СВ 2 16 км ясно +3.9 +0.6 79 +1 +1 1017.1 1002.1
штиль 0 16 км ясно +3.3 +0.6 82 +2 +2 1016.6 1001.8 +2.8 +9.4
штиль 0 16 км ясно +2.2 +0.6 89 +1 +1 1016.3 1001.4
штиль 0 16 км ясно +2.2 0.0 85 +1 +1 1016.1 1001.4
Местоположение метеостанции Doylestown Airport: широта 40.3302 долгота -75.1229 высота над уровнем моря 120 м.
В архиве по умолчанию представлена погода в Дойлестауне за последние 1-2 суток. Обновление информации о фактической погоде в базе происходит ежечасно! Архивные данные за месяц целиком и за предыдущие месяцы Вы можете получить, выбрав интересующий диапазон дат из раскрывающегося списка и нажав кнопку "Ввод!".
Внимание! Архив погоды МЕТАР в базе сайта по станциям, не включенным в климатический монитор, хранится не более 60 дней. Нет смысла пытаться выбрать более раннюю дату.
*Определитесь, кто Вы:
Внимание! Время в таблицах - местное (без учета летнего времени). Для получения всемирного времени необходимо вычесть поправку, которая равна -5 ч.
Смотрите также архив погоды в соседних городах и на ближайших метеорологических станциях:
Партнеры нашего сайта:      
Пояснения к столбцам:
  • Ветер - указаны скорость ветра в м/с - средняя за 10 мин, порывы в срок и между сроками (в фигурных скобках) и направление, откуда дует ветер: С - северный,
  • СВ - северо-восточный, В - восточный, ЮВ - юго-восточный, Ю - южный, ЮЗ - юго-западный, З - западный, СЗ - северо-западный.
  • Видимость - горизонтальная дальность видимости в метрах или километрах. При видимости от 1 до 10 км при отсутствии осадков обычно наблюдается дымка, при ухудшении видимости до 1 км и менее - туман. В сухую погоду видимость может ухудшаться дымом, пылью или мглою.
  • Явления - указаны атмосферные явления, наблюдавшиеся в срок или в последний час перед сроком; фигурными скобками обозначены явления, наблюдавшиеся между сроками (за 1-3 часа до срока); квадратными скобками обозначены град или гололедные отложения с указанием их диаметра в мм.
  • Облачность - указаны через наклонную черту общая и нижняя облачность в баллах и высота нижней границы облаков в метрах; квадратными скобками обозначены формы облаков: Ci - перистые, Cs - перисто-слоистые, Cc - перисто-кучевые, Ac - высококучевые, As - высокослоистые, Sc - слоисто-кучевые, Ns - слоисто-дождевые, Cu - кучевые, Cb - кучево-дождевые. Подробнее классификацию облаков см. в Атласе облаков (PDF).
  • T - Температура воздуха - температура, измеренная на высоте 2 м над землей.
  • Td - Температура точки росы - температура, при понижении до которой содержащийся в воздухе водяной пар достигнет насыщения.
  • f - Относительная влажность воздуха - влажноcть воздуха, измеренная на высоте 2 м над землей.
  • Te - Эффективная температура - температура, которую ощущает одетый по сезону человек в тени. Характеристика душности погоды. При расчете учитывается влияние влажности воздуха и скорости ветра на теплоощущения человека.
  • Tes - Эффективная температура на солнце - температура, которую ощущает человек, с поправкой на солнечный нагрев. Характеристика знойности погоды. Зависит от высоты солнца над горизонтом, облачности и скорости ветра. Ночью, в пасмурную погоду, а также при ветре 12 м/с и более поправка равна нулю.
  • P - Атмосферное давление - приведенное к уровню моря атмосферное давление.
  • Po - Атмосферное давление - измеренное на уровне метеостанции атмосферное давление.
  • Tmin - Минимальная температура - минимум температуры воздуха на высоте 2 м над землей.
  • Tmax - Максимальная температура - максимум температуры воздуха на высоте 2 м над землей.
  • R - Количество осадков - Количество выпавших осадков за период времени, мм. При наведении курсора мыши на число - период времени, за который выпало указанное количество осадков.
  • R24 - Количество осадков - Количество выпавших осадков за 24 часа, мм.
  • S - Снежный покров - Высота снежного покрова, см. При наведении курсора мыши на число - состояние снежного покрова и степень покрытия местности в баллах.